Regional Weather Roundup
Issued by NWS Cleveland, OH

Home | Current Version | Previous Version | Graphics & Text | Print | Product List | Glossary On
Versions: 1 2 3 4 5 6 7 8 9 10 11 12 13 14 15 16 17 18 19 20 21 22 23 24 25 26 27 28 29 30 31 32 33 34 35 36 37 38 39 40 41 42 43 44 45 46 47 48 49 50
000
ASUS41 KCLE 300412
RWRCLE
OHIO REGIONAL WEATHER ROUNDUP
NATIONAL WEATHER SERVICE WILMINGTON, OH
1200 AM EDT SAT JUL 30 2016

NOTE: "FAIR" INDICATES FEW OR NO CLOUDS BELOW 12,000 FEET WITH NO
SIGNIFICANT WEATHER AND/OR OBSTRUCTIONS TO VISIBILITY.

OHZ001>008-015>018-024>027-034-035-043-044-300500-
   NORTHWEST OHIO

CITY           SKY/WX    TMP DP  RH WIND       PRES   REMARKS
DEFIANCE       MOCLDY    72  68  87 N5        29.96R
FINDLAY        FAIR      73  67  81 E8        29.93F
TOLEDO EXPRESS MOCLDY    72  71  97 NE8       29.95S
TOLEDO EXEC    CLOUDY    76  71  85 NE5       29.96F
LIMA           CLOUDY    71  71 100 E8        29.94F
$$

OHZ009>014-019>023-028>033-038-089-300500-
   NORTHEAST OHIO

CITY           SKY/WX    TMP DP  RH WIND       PRES   REMARKS
CLE-HOPKINS    MOCLDY    76  64  66 E7        29.97F
CLE-LAKEFRONT  FAIR      77  67  71 E5        29.94F
CUY CO. ARPT   NOT AVBL
LORAIN-ELYRIA  FAIR      71  66  84 CALM      29.96S
ASHTABULA      FAIR      67  67 100 CALM      29.98F
AKRON-CANTON   CLOUDY    71  67  87 SE6       29.97F FOG
WOOSTER        FAIR      68  65  90 SE3       29.97F
MANSFIELD      FAIR      71  66  84 SE5       29.97F
YOUNGSTOWN     CLOUDY    68  66  93 CALM      29.98S
$$

OHZ042-051>053-060>062-070>072-077>081-300500-
  SOUTHWEST OHIO

CITY           SKY/WX    TMP DP  RH WIND       PRES   REMARKS
CINC-COVINGTON CLOUDY    71  70  96 CALM      29.94F
CINC-LUNKEN    MOCLDY    71  32  23 SW7       29.93F
HAMILTON       FAIR      73  71  93 CALM      29.93F
DAYTON         FAIR      69  68  96 E5        29.96F
WRIGHT-PAT AFB MOCLDY    70  70 100 CALM      29.95S FOG
DAYTON GENERAL FAIR      71  68  90 CALM      29.94F
WILMINGTON     MOCLDY    69  68  96 S3        29.95F
$$

OHZ036-037-039>041-045>050-054>059-063>069-073>076-082>088-300500-
  CENTRAL AND SOUTHEAST OHIO

CITY           SKY/WX    TMP DP  RH WIND       PRES   REMARKS
COLUMBUS       LGT RAIN  75  67  76 SE7       29.94S
OSU AIRPORT    FAIR      74  71  91 SE3       29.94F
BOLTON FIELD   LGT RAIN  72  72  99 CALM      29.96S
RICKENBACK AFB LGT RAIN  73  72  98 E3        29.94F
NEWARK         FAIR      70  67  90 CALM      29.94F
MARION         FAIR      71  66  84 CALM      29.95F
LANCASTER      CLOUDY    73  71  93 CALM      29.95S
ZANESVILLE     FAIR      75  69  81 CALM      29.95F
NEW PHILLY     FAIR      73  69  87 NW3       29.95F
$$




USA.gov is the U.S. government's official web portal to all federal, state and local government web resources and services.